#�ϑ�����,���ϕ���,���ϕ���,�ő啗��,�ő啗����������,�ő�u�ԕ���,�ő�u�ԕ�����������
#(�N����),(m/s)   ,(16����),(m/s)   ,(16����)        ,(m/s)       ,(16����)            
2012/1/10 9:33,2.3,10,2.9,10,3,10
2012/1/10 9:34,2.2,10,2.4,10,2.7,10
2012/1/10 9:35,2.4,10,2.4,10,4.1,10
2012/1/10 9:36,2.5,10,2.5,10,3.6,10
2012/1/10 9:37,2.6,10,2.6,10,4.4,10
2012/1/10 9:38,2.7,10,2.7,10,4.3,10
2012/1/10 9:39,2.5,10,2.7,10,3.8,11
2012/1/10 9:40,2.5,10,2.5,10,3.8,10
2012/1/10 9:41,2.6,10,2.6,10,3.5,11
2012/1/10 9:42,2.5,10,2.6,10,3.6,10
2012/1/10 9:43,2.6,10,2.6,10,3.7,10
2012/1/10 9:44,2.6,10,2.6,10,3.9,10
2012/1/10 9:45,2.5,10,2.6,10,3.8,9
2012/1/10 9:46,2.3,10,2.5,10,3.1,8
2012/1/10 9:47,2.2,10,2.3,10,2.7,10
2012/1/10 9:48,2.2,10,2.2,10,3.3,11
2012/1/10 9:49,2.2,10,2.2,10,3.1,11
2012/1/10 9:50,2.1,10,2.2,10,2.6,9
2012/1/10 9:51,2,10,2.1,10,3.3,9
2012/1/10 9:52,2,10,2,10,3.2,10
2012/1/10 9:53,1.9,10,2,10,3.1,10
2012/1/10 9:54,1.8,10,1.9,10,2.5,9
2012/1/10 9:55,1.7,10,1.8,10,1.9,9
2012/1/10 9:56,1.7,10,1.7,10,3,10
2012/1/10 9:57,1.6,10,1.7,10,1.8,7
2012/1/10 9:58,1.5,10,1.6,10,2.6,10
2012/1/10 9:59,1.4,10,1.5,10,2,9
2012/1/10 10:00,1.3,10,1.4,10,1.4,10
2012/1/10 10:01,1.2,10,1.3,10,1.4,10
2012/1/10 10:02,1.1,10,1.2,10,0.8,12
2012/1/10 10:03,0.9,11,1,10,0.5,13
2012/1/10 10:04,0.8,11,0.9,10,0.3,12
2012/1/10 10:05,0.7,11,0.8,10,0,15
2012/1/10 10:06,0.6,12,0.7,10,0.6,1
2012/1/10 10:07,0.5,12,0.6,10,0.6,1
2012/1/10 10:08,0.4,13,0.5,10,0.3,3
2012/1/10 10:09,0.3,14,0.3,10,0,3
2012/1/10 10:10,0.2,15,0.3,10,0.1,1
2012/1/10 10:11,0.1,16,0.2,10,0.1,8
2012/1/10 10:12,0.1,1,0.1,10,0.5,6
2012/1/10 10:13,0.1,1,0.1,11,0.4,3
2012/1/10 10:14,0.2,2,0.2,11,1.4,2
2012/1/10 10:15,0.3,3,0.3,11,1.3,4
2012/1/10 10:16,0.3,3,0.3,12,1.3,4
2012/1/10 10:17,0.3,4,0.3,13,0.8,6
2012/1/10 10:18,0.3,3,0.4,4,0.9,4
2012/1/10 10:19,0.4,4,0.4,4,0.6,9
2012/1/10 10:20,0.4,4,0.4,4,1.1,2
2012/1/10 10:21,0.5,4,0.5,4,1.5,2
2012/1/10 10:22,0.5,3,0.5,4,0.9,15
2012/1/10 10:23,0.6,3,0.6,3,1,2
2012/1/10 10:24,0.5,3,0.6,3,0.6,2
2012/1/10 10:25,0.5,3,0.6,3,1.1,1
2012/1/10 10:26,0.5,2,0.5,3,1.4,3
2012/1/10 10:27,0.5,2,0.6,3,0.9,3
2012/1/10 10:28,0.6,2,0.6,3,1.4,3
2012/1/10 10:29,0.6,2,0.6,3,1.3,4
2012/1/10 10:30,0.6,2,0.6,3,1.4,5
2012/1/10 10:31,0.6,2,0.6,3,1.1,6
2012/1/10 10:32,0.6,3,0.6,3,0.8,6
2012/1/10 10:33,0.6,3,0.6,3,2,6
2012/1/10 10:34,0.7,4,0.7,4,1.9,7
2012/1/10 10:35,0.7,4,0.7,4,1.1,6
2012/1/10 10:36,0.6,5,0.7,4,1.6,5
2012/1/10 10:37,0.7,5,0.7,4,1.1,7
2012/1/10 10:38,0.7,6,0.7,4,1.8,8
2012/1/10 10:39,0.7,6,0.7,4,2,8
2012/1/10 10:40,0.7,7,0.7,4,2.1,9
2012/1/10 10:41,0.8,7,0.8,7,2.2,8
2012/1/10 10:42,0.9,7,0.9,7,1.8,8
2012/1/10 10:43,0.9,8,0.9,7,1.9,9
2012/1/10 10:44,0.9,8,0.9,7,1.4,8
2012/1/10 10:45,0.9,8,0.9,7,1.1,7
2012/1/10 10:46,0.9,8,0.9,7,1.9,9
2012/1/10 10:47,0.9,8,0.9,7,2,9
2012/1/10 10:48,0.9,8,0.9,7,1.4,9
2012/1/10 10:49,0.9,9,0.9,7,1,11
2012/1/10 10:50,0.9,9,0.9,7,1.3,12
2012/1/10 10:51,0.8,9,0.9,7,1.1,10
2012/1/10 10:52,0.7,10,0.8,7,1,12
2012/1/10 10:53,0.7,10,0.7,8,0.9,11
2012/1/10 10:54,0.7,10,0.7,8,1.3,11
2012/1/10 10:55,0.7,11,0.7,8,0.6,9
2012/1/10 10:56,0.6,11,0.7,8,1.3,11
2012/1/10 10:57,0.7,10,0.7,8,1.8,10
2012/1/10 10:58,0.7,10,0.7,8,2,9
2012/1/10 10:59,0.7,10,0.8,9,2,9
2012/1/10 11:00,0.7,10,0.7,9,2.4,9
2012/1/10 11:01,0.8,10,0.8,9,2.2,9
2012/1/10 11:02,0.8,10,0.8,10,3,8
2012/1/10 11:03,0.8,9,0.8,10,2.1,9
2012/1/10 11:04,0.8,9,0.8,10,1.9,10
2012/1/10 11:05,0.9,9,0.9,9,1.5,10
2012/1/10 11:06,0.9,9,0.9,9,1.1,10
2012/1/10 11:07,0.9,9,0.9,9,2.5,9
2012/1/10 11:08,0.9,9,0.9,9,2.4,8
2012/1/10 11:09,1,9,1,9,3.5,8
2012/1/10 11:10,1,9,1.1,9,2.7,8
2012/1/10 11:11,1,9,1,9,2.4,8
2012/1/10 11:12,1.1,9,1.1,9,3.1,8
2012/1/10 11:13,1.1,9,1.1,9,2.9,8
2012/1/10 11:14,1.2,8,1.2,9,3,8
2012/1/10 11:15,1.2,8,1.2,9,2.6,8
2012/1/10 11:16,1.3,8,1.3,8,3,8
2012/1/10 11:17,1.3,8,1.4,8,2.4,9
2012/1/10 11:18,1.4,9,1.4,8,2,11
2012/1/10 11:19,1.2,9,1.3,8,1.8,10
2012/1/10 11:20,1.2,9,1.2,8,1.5,8
2012/1/10 11:21,1.1,9,1.2,8,0.8,6
2012/1/10 11:22,1,9,1.1,8,1.1,7
2012/1/10 11:23,1,8,1,8,1.3,6
2012/1/10 11:24,0.9,8,1,8,1.5,7
2012/1/10 11:25,0.9,8,1,8,1.6,9
2012/1/10 11:26,0.9,8,0.9,8,1.9,8
2012/1/10 11:27,0.8,8,0.8,8,1,8
2012/1/10 11:28,0.7,7,0.8,9,0.6,15
2012/1/10 11:29,0.6,7,0.7,9,0.8,11
2012/1/10 11:30,0.6,7,0.6,9,2.1,9
2012/1/10 11:31,0.7,7,0.7,9,1.8,8
2012/1/10 11:32,0.7,7,0.7,9,2.2,9
2012/1/10 11:33,0.8,8,0.8,8,2.2,8
2012/1/10 11:34,0.8,8,0.8,8,2,7
2012/1/10 11:35,0.8,8,0.8,8,1.5,6
2012/1/10 11:36,0.8,8,0.8,8,1.9,10
2012/1/10 11:37,0.9,8,0.9,8,2.4,8
2012/1/10 11:38,0.9,8,0.9,8,1.8,10
2012/1/10 11:39,1,8,1,8,2.2,9
2012/1/10 11:40,1.1,8,1.1,8,2.5,8
2012/1/10 11:41,1.1,8,1.1,8,1.9,8
2012/1/10 11:42,1,8,1.1,8,2.1,7
2012/1/10 11:43,1.1,8,1.1,8,2.4,8
2012/1/10 11:44,1,9,1.1,8,2.5,8
2012/1/10 11:45,1,9,1,8,0.8,7
2012/1/10 11:46,1,8,1,8,1.9,7
2012/1/10 11:47,1,8,1,8,2.1,7
2012/1/10 11:48,1,8,1,8,1.9,6
2012/1/10 11:49,1,8,1,8,1.8,10
2012/1/10 11:50,0.9,8,1,8,1.5,8
2012/1/10 11:51,0.9,8,0.9,9,2.1,8
2012/1/10 11:52,1,8,1,8,2,8
2012/1/10 11:53,0.9,8,1,8,2.6,9
2012/1/10 11:54,0.8,8,0.9,9,0.6,14
2012/1/10 11:55,0.8,8,0.8,9,1.6,9
2012/1/10 11:56,0.8,9,0.8,8,1.3,10
2012/1/10 11:57,0.8,9,0.8,8,1.8,12
2012/1/10 11:58,0.7,10,0.8,8,0.4,13
2012/1/10 11:59,0.6,10,0.7,8,2.1,9
2012/1/10 12:00,0.6,10,0.7,8,1.5,11
2012/1/10 12:01,0.7,10,0.7,8,2.7,9
2012/1/10 12:02,0.8,10,0.8,8,3.1,9
2012/1/10 12:03,0.9,10,0.9,8,3.6,9
2012/1/10 12:04,1,9,1,9,2.9,9
2012/1/10 12:05,1.2,9,1.2,9,4.7,8
2012/1/10 12:06,1.2,9,1.2,9,2.6,9
2012/1/10 12:07,1.3,9,1.3,9,3.5,8
2012/1/10 12:08,1.3,8,1.3,9,1.1,11
2012/1/10 12:09,1.3,8,1.3,9,2.2,8
2012/1/10 12:10,1.4,8,1.4,8,2.9,10
2012/1/10 12:11,1.4,9,1.4,8,2.5,12
2012/1/10 12:12,1.3,10,1.4,8,2,14
2012/1/10 12:13,1.2,10,1.3,8,1.5,11
2012/1/10 12:14,1.1,10,1.2,8,1.8,8
2012/1/10 12:15,1.1,10,1.1,8,4.1,10
2012/1/10 12:16,1.2,11,1.2,8,4.7,10
2012/1/10 12:17,1.3,10,1.3,8,4.7,9
2012/1/10 12:18,1.5,10,1.5,10,3.9,9
2012/1/10 12:19,1.6,10,1.6,10,3.8,9
2012/1/10 12:20,1.7,10,1.7,10,3.9,9
2012/1/10 12:21,1.8,10,1.8,10,4.7,8
2012/1/10 12:22,1.9,10,1.9,10,4.4,9
2012/1/10 12:23,2,10,2,10,2.7,9
2012/1/10 12:24,2.1,10,2.1,10,3.5,10
2012/1/10 12:25,2.2,10,2.2,10,3.3,10
2012/1/10 12:26,2.1,10,2.1,10,3.2,9
2012/1/10 12:27,2.1,10,2.2,10,3.3,11
2012/1/10 12:28,2.1,10,2.1,10,3.8,9
2012/1/10 12:29,2,10,2.1,10,3.3,9
2012/1/10 12:30,2,10,2,10,2.6,10
2012/1/10 12:31,1.9,10,2,10,2.7,9
2012/1/10 12:32,1.8,10,1.9,10,2.5,10
2012/1/10 12:33,1.9,10,1.9,10,3.1,10
2012/1/10 12:34,1.8,10,1.9,10,1.9,8
2012/1/10 12:35,1.7,10,1.8,10,2.4,8
2012/1/10 12:36,1.7,10,1.7,10,2.7,9
2012/1/10 12:37,1.5,10,1.7,10,2.6,7
2012/1/10 12:38,1.5,10,1.5,10,3,8
2012/1/10 12:39,1.4,9,1.5,10,2.7,9
2012/1/10 12:40,1.4,9,1.4,10,2.5,8
2012/1/10 12:41,1.5,9,1.5,10,3.6,8
2012/1/10 12:42,1.4,8,1.5,10,2.6,9
2012/1/10 12:43,1.4,8,1.4,10,3.1,7
2012/1/10 12:44,1.5,8,1.5,10,4.3,9
2012/1/10 12:45,1.6,8,1.6,10,2.9,9
2012/1/10 12:46,1.6,8,1.6,10,3,8
2012/1/10 12:47,1.6,8,1.6,8,2.1,8
2012/1/10 12:48,1.7,8,1.7,8,2.6,8
2012/1/10 12:49,1.6,8,1.7,8,2.1,8
2012/1/10 12:50,1.6,8,1.6,8,2.1,8
2012/1/10 12:51,1.5,8,1.6,8,2.7,9
2012/1/10 12:52,1.4,8,1.5,8,2.5,9
2012/1/10 12:53,1.3,9,1.4,8,1.5,10
2012/1/10 12:54,1.1,9,1.3,8,1.5,10
2012/1/10 12:55,1,9,1.1,8,2.1,7
2012/1/10 12:56,1,9,1,8,2.2,10
2012/1/10 12:57,0.9,9,1,8,1.5,8
2012/1/10 12:58,1,9,1,8,3.1,10
2012/1/10 12:59,1.1,10,1.1,8,3.2,11
2012/1/10 13:00,1.1,10,1.1,8,3,10
2012/1/10 13:01,1.2,10,1.2,8,3.7,10
2012/1/10 13:02,1.3,10,1.3,8,4.8,9
2012/1/10 13:03,1.5,10,1.5,10,3.9,9
2012/1/10 13:04,1.6,10,1.6,10,3,10
2012/1/10 13:05,1.7,10,1.7,10,3,9
2012/1/10 13:06,1.7,10,1.7,10,2.2,7
2012/1/10 13:07,1.7,10,1.7,10,1.1,9
2012/1/10 13:08,1.6,10,1.7,10,2,9
2012/1/10 13:09,1.5,9,1.6,10,1.6,7
2012/1/10 13:10,1.4,9,1.5,10,2.1,8
2012/1/10 13:11,1.3,9,1.4,10,2.7,8
2012/1/10 13:12,1.2,9,1.3,10,2.7,9
2012/1/10 13:13,1.1,9,1.2,10,1.8,10
2012/1/10 13:14,1,9,1.1,10,1.8,9
2012/1/10 13:15,1,9,1,10,3.6,10
2012/1/10 13:16,1.1,9,1.1,10,3.2,9
2012/1/10 13:17,1.3,9,1.3,10,3.5,9
2012/1/10 13:18,1.4,9,1.4,10,3.2,10
2012/1/10 13:19,1.5,10,1.5,9,2.6,9
2012/1/10 13:20,1.6,10,1.6,10,3.1,12
2012/1/10 13:21,1.6,10,1.6,10,2.1,13
2012/1/10 13:22,1.7,11,1.7,10,2.5,13
2012/1/10 13:23,1.7,11,1.7,10,2,12
2012/1/10 13:24,1.8,11,1.8,11,2.6,12
2012/1/10 13:25,1.8,11,1.8,11,2.6,12
2012/1/10 13:26,1.7,12,1.8,11,2.4,13
2012/1/10 13:27,1.6,12,1.7,11,1.9,10
2012/1/10 13:28,1.5,12,1.6,11,1.1,8
2012/1/10 13:29,1.4,12,1.5,11,1.4,9
2012/1/10 13:30,1.2,12,1.3,11,1,10
2012/1/10 13:31,1.1,12,1.2,11,1.1,6
2012/1/10 13:32,1,12,1.1,11,0.8,6
2012/1/10 13:33,0.9,11,1,11,1,4
2012/1/10 13:34,0.9,10,0.9,11,2.5,4
2012/1/10 13:35,0.8,9,0.9,11,2,4
2012/1/10 13:36,0.7,8,0.8,12,2.2,8
2012/1/10 13:37,0.7,7,0.7,12,1.9,6
2012/1/10 13:38,0.8,7,0.8,12,1.6,7
2012/1/10 15:09,2.9,10,3.1,10,4.2,10
2012/1/10 15:10,2.9,10,2.9,10,5.2,9
2012/1/10 15:11,2.9,10,3,10,5,9
2012/1/10 15:12,3.2,10,3.2,10,6.1,10
2012/1/10 15:13,3.4,10,3.4,10,5.7,10
2012/1/10 15:14,3.2,10,3.4,10,5.7,9
2012/1/10 15:15,3.1,10,3.2,10,6.5,10
2012/1/10 15:16,3.1,10,3.1,10,6,10
2012/1/10 15:17,3,10,3.1,10,4.9,11
2012/1/10 15:18,2.9,10,3,10,4.4,11
2012/1/10 15:19,2.8,10,2.9,10,4.3,10
2012/1/10 15:20,2.7,10,2.8,10,3.5,9
2012/1/10 15:21,2.6,10,2.7,10,3.7,11
2012/1/10 15:22,2.3,11,2.6,10,3.6,14
2012/1/10 15:23,2.1,11,2.3,10,4.5,10
2012/1/10 15:24,2.1,11,2.1,10,3.6,11
2012/1/10 15:25,2.1,11,2.1,10,5,12
2012/1/10 15:26,2,11,2.1,10,4.1,10
2012/1/10 15:27,2,11,2.1,10,4.7,10
2012/1/10 15:28,2.1,11,2.1,10,3.6,10
2012/1/10 15:29,2,11,2.1,10,3.3,11
2012/1/10 15:30,1.9,11,2,10,1.1,14
2012/1/10 15:31,2,11,2,10,2.6,14
2012/1/10 15:32,1.9,11,1.9,11,1.6,14
2012/1/10 15:33,1.8,11,1.9,11,2.2,8
2012/1/10 15:34,1.8,11,1.8,11,3.1,10
2012/1/10 15:35,1.7,11,1.8,11,2.7,10
2012/1/10 15:36,1.6,11,1.7,11,1.9,9
2012/1/10 15:37,1.4,11,1.6,11,3.2,9
2012/1/10 15:38,1.5,11,1.5,11,3.6,9
2012/1/10 15:39,1.5,11,1.5,11,3.5,12
2012/1/10 15:40,1.6,11,1.6,11,3.3,10
2012/1/10 15:41,1.5,10,1.6,11,2.2,9
2012/1/10 15:42,1.6,10,1.6,11,2.5,9
2012/1/10 15:43,1.6,10,1.6,11,2.6,12
2012/1/10 15:44,1.7,10,1.7,11,2.9,10
2012/1/10 15:45,1.7,10,1.7,11,2.7,11
2012/1/10 15:46,1.7,10,1.7,10,2.2,9
2012/1/10 15:47,1.7,10,1.7,10,1.8,10
2012/1/10 15:48,1.6,10,1.7,10,2.1,10
2012/1/10 15:49,1.4,11,1.6,10,0.5,14
2012/1/10 15:50,1.3,11,1.4,10,1.5,13
2012/1/10 15:51,1.2,11,1.3,10,1.8,13
2012/1/10 15:52,1.3,11,1.3,10,2.5,12
2012/1/10 15:53,1.3,11,1.3,10,2.6,13
2012/1/10 15:54,1.2,12,1.3,10,3,13
2012/1/10 15:55,1.2,12,1.2,10,2.7,13
2012/1/10 15:56,1.2,12,1.2,10,2.5,10
2012/1/10 15:57,1.3,12,1.3,10,2.9,9
2012/1/10 15:58,1.3,12,1.3,10,3.1,9
2012/1/10 15:59,1.4,11,1.4,11,2.5,10
2012/1/10 16:00,1.4,11,1.4,11,1.8,9
2012/1/10 16:01,1.4,11,1.4,11,2.1,11
2012/1/10 16:02,1.4,11,1.4,11,1.5,10
2012/1/10 16:03,1.3,11,1.4,11,2.2,12
2012/1/10 16:04,1.2,10,1.3,11,1.6,10
2012/1/10 16:05,1.2,10,1.2,11,2,11
2012/1/10 16:06,1.2,11,1.2,11,1.6,13
2012/1/10 16:07,1.1,11,1.2,11,1.9,13
2012/1/10 16:08,1,11,1.1,11,0.6,10
2012/1/10 16:09,1,11,1,11,2.1,11
2012/1/10 16:10,1.1,11,1.1,11,3,10
2012/1/10 16:11,1.1,11,1.1,11,1.8,10
2012/1/10 16:12,1.1,11,1.1,11,1.5,13
2012/1/10 16:13,1.1,11,1.1,11,2.6,11
2012/1/10 16:14,1.1,11,1.1,10,2.1,10
2012/1/10 16:15,1.1,11,1.1,10,1.8,11
2012/1/10 16:16,1.1,11,1.1,11,1.9,12
2012/1/10 16:17,1.1,11,1.1,11,1.3,11
2012/1/10 16:18,1.2,11,1.2,11,2.4,11
2012/1/10 16:19,1.1,11,1.2,11,1.3,14
2012/1/10 16:20,1.1,11,1.1,11,1.5,13
2012/1/10 16:21,1,12,1,11,0.9,11
2012/1/10 16:22,1,12,1,11,1,14
2012/1/10 16:23,0.9,12,0.9,11,1.1,11
2012/1/10 16:24,0.8,12,0.9,11,1.3,13
2012/1/10 16:25,0.8,13,0.8,11,0.8,13
2012/1/10 16:26,0.8,13,0.8,11,1.1,11
2012/1/10 16:27,0.8,13,0.8,11,1.9,12
2012/1/10 16:28,0.8,13,0.8,11,1.5,10
2012/1/10 16:29,0.8,12,0.8,11,1.3,10
2012/1/10 16:30,0.7,12,0.8,12,0.5,13
2012/1/10 16:31,0.7,12,0.7,12,0.3,16
2012/1/10 16:32,0.6,12,0.7,12,0.5,12
2012/1/10 16:33,0.6,12,0.6,12,0.6,14
2012/1/10 16:34,0.5,12,0.6,12,0.5,11
2012/1/10 16:35,0.5,12,0.5,13,0.5,13
2012/1/10 16:36,0.5,12,0.5,13,0.5,15
2012/1/10 16:37,0.4,13,0.5,13,0.6,15
2012/1/10 16:38,0.3,13,0.4,12,0.6,15
2012/1/10 16:39,0.2,14,0.3,12,0.5,13
2012/1/10 16:40,0.3,14,0.3,12,0.8,15
2012/1/10 16:41,0.3,14,0.3,12,0.6,14
2012/1/10 16:42,0.4,14,0.4,12,1,15
2012/1/10 16:43,0.4,14,0.4,12,1.4,14
2012/1/10 16:44,0.5,14,0.5,12,1.1,15
2012/1/10 16:45,0.5,15,0.5,12,1.1,15
2012/1/10 16:46,0.6,15,0.6,15,1.5,15
2012/1/10 16:47,0.7,15,0.7,15,2.2,16
2012/1/10 16:48,0.8,15,0.8,15,1.9,16
2012/1/10 16:49,0.9,15,0.9,15,1.8,15
2012/1/10 16:50,1,15,1,15,2.1,15
2012/1/10 16:51,1.1,15,1.1,15,2.2,1
2012/1/10 16:52,1.2,15,1.2,15,2.5,15
2012/1/10 16:53,1.3,16,1.3,16,2.4,15
2012/1/10 16:54,1.4,16,1.4,16,2.6,16
2012/1/10 16:55,1.5,16,1.5,16,2.4,16
2012/1/10 16:56,1.5,16,1.5,16,3,16
2012/1/10 16:57,1.6,16,1.6,16,2.9,16
2012/1/10 16:58,1.7,15,1.7,15,3.7,15
2012/1/10 16:59,1.8,15,1.8,15,3.3,14
2012/1/10 17:00,2,15,2,15,3.9,15
2012/1/10 17:01,2.1,15,2.1,15,3.6,15
2012/1/10 17:02,2.2,15,2.2,15,3.8,14
2012/1/10 17:03,2.3,15,2.3,15,3.7,15
2012/1/10 17:04,2.4,15,2.4,15,3.7,15
2012/1/10 17:05,2.5,15,2.5,15,4.3,15
2012/1/10 17:06,2.7,15,2.7,15,4.7,16
2012/1/10 17:07,2.8,15,2.8,15,5.4,15
2012/1/10 17:08,2.9,15,2.9,15,5.1,15
2012/1/10 17:09,3,15,3,15,5.2,16
2012/1/10 17:10,3,15,3,15,3.9,15
2012/1/10 17:11,2.9,15,3,15,3.7,16
2012/1/10 17:12,3,15,3,15,4.4,15
2012/1/10 17:13,3,15,3,15,4.2,16
2012/1/10 17:14,3,15,3,15,5.4,15
2012/1/10 17:15,3.1,15,3.1,15,5.1,15
2012/1/10 17:16,3,15,3.1,15,5.2,16
2012/1/10 17:17,3,15,3.1,15,5.7,15
2012/1/10 17:18,2.8,15,3,15,3.2,15
2012/1/10 17:19,2.8,15,2.8,15,4.4,15
2012/1/10 17:20,2.8,15,2.8,15,3.6,16
2012/1/10 17:21,2.9,15,2.9,15,4.5,15
2012/1/10 17:22,2.9,15,2.9,15,3.9,16
2012/1/10 17:23,2.9,15,2.9,15,4.2,16
2012/1/10 17:24,2.9,15,2.9,15,4.5,15
2012/1/10 17:25,2.7,15,2.8,15,3.7,16
2012/1/10 17:26,2.7,15,2.8,15,4.2,15
2012/1/10 17:27,2.7,15,2.7,15,3.2,15
2012/1/10 17:28,2.7,15,2.7,15,3.1,15
2012/1/10 17:29,2.7,16,2.7,15,3.3,16
2012/1/10 17:30,2.7,16,2.7,15,3,15
2012/1/10 17:31,2.6,16,2.7,15,3.3,15
2012/1/10 17:32,2.6,16,2.7,15,3.8,15
2012/1/10 17:33,2.7,16,2.7,15,3.8,16
2012/1/10 17:34,2.6,16,2.7,15,3.6,15
2012/1/10 17:35,2.7,16,2.7,15,4.3,16
2012/1/10 17:36,2.6,16,2.7,15,4.2,15
2012/1/10 17:37,2.7,16,2.7,15,4.4,16
2012/1/10 17:38,2.7,16,2.7,16,3.7,15
2012/1/10 17:39,2.7,16,2.7,16,3.6,15
2012/1/10 17:40,2.7,15,2.7,16,3.5,16
2012/1/10 17:41,2.7,16,2.7,16,4.4,15
2012/1/10 17:42,2.7,16,2.7,16,4.2,16
2012/1/10 17:43,2.7,16,2.7,16,3.8,15
2012/1/10 17:44,2.7,16,2.7,16,3.1,15
2012/1/10 17:45,2.6,16,2.7,16,3.1,16
2012/1/10 17:46,2.5,16,2.6,16,2.9,15
2012/1/10 17:47,2.5,15,2.6,16,3.1,16
2012/1/10 17:48,2.5,16,2.5,16,3,15
2012/1/10 17:49,2.5,15,2.5,15,3.8,16
2012/1/10 17:50,2.5,15,2.6,16,3.7,15
2012/1/10 17:51,2.6,15,2.6,16,4.7,15
2012/1/10 17:52,2.6,15,2.6,16,4.5,15
2012/1/10 17:53,2.5,15,2.6,16,3.6,14
2012/1/10 17:54,2.6,15,2.6,16,5.1,16
2012/1/10 17:55,2.7,15,2.7,15,4.7,15
2012/1/10 17:56,2.9,15,2.9,15,5.5,15
2012/1/10 17:57,2.9,15,3,15,4.9,16
2012/1/10 17:58,3,15,3,15,3.9,14
2012/1/10 17:59,3,15,3,15,4.3,15
2012/1/10 18:00,3.1,15,3.1,15,4.4,15
2012/1/10 18:01,3,15,3.1,15,3.3,16
2012/1/10 18:02,3,15,3,15,3.2,16
2012/1/10 18:03,3,15,3,15,3.9,16
2012/1/10 18:04,2.9,15,3,15,3.9,15
2012/1/10 18:05,2.9,15,2.9,15,4.5,15
2012/1/10 18:06,2.8,15,2.9,15,3.7,15
2012/1/10 18:07,2.8,15,2.8,15,4.5,15
2012/1/10 18:08,2.7,15,2.8,15,3.2,15
2012/1/10 18:09,2.5,15,2.6,15,2.9,16
2012/1/10 18:10,2.4,15,2.5,15,3.8,15
2012/1/10 18:11,2.5,15,2.5,15,4.2,16
2012/1/10 18:12,2.5,16,2.5,15,4.7,15
2012/1/10 18:13,2.5,15,2.5,15,4.1,14
2012/1/10 18:14,2.4,15,2.5,15,2.6,16
2012/1/10 18:15,2.3,15,2.3,15,3.3,15
2012/1/10 18:16,2.3,15,2.3,15,4.2,15
2012/1/10 18:17,2.4,15,2.4,15,4.4,15
2012/1/10 18:18,2.6,15,2.6,15,5.1,15
2012/1/10 18:19,2.7,15,2.7,15,3.9,15
2012/1/10 18:20,2.7,15,2.7,15,4.3,15
2012/1/10 18:21,2.7,15,2.7,15,4.2,16
2012/1/10 18:22,2.7,15,2.8,15,4.1,16
2012/1/10 18:23,2.8,15,2.8,15,4.4,15
2012/1/10 18:24,2.9,15,2.9,15,3.9,15
2012/1/10 18:25,2.8,15,2.9,15,3.9,16
2012/1/10 18:26,2.8,15,2.8,15,4.8,14
2012/1/10 18:27,2.9,15,2.9,15,5.2,15
2012/1/10 18:28,2.9,15,2.9,15,5.4,15
2012/1/10 18:29,2.9,15,2.9,15,4.5,16
2012/1/10 18:30,3,15,3,15,5.5,16
2012/1/10 18:31,2.9,15,3,15,3.6,15
2012/1/10 18:32,3,15,3,15,4.7,15
2012/1/10 18:33,2.9,15,3,15,4.3,16
2012/1/10 18:34,2.9,15,3,15,3.7,15
2012/1/10 18:35,3.1,15,3.1,15,5.1,16
2012/1/10 18:36,3.2,15,3.2,15,4.5,16
2012/1/10 18:37,3,15,3.2,15,3.5,16
2012/1/10 18:38,2.8,15,3,15,3.1,16
2012/1/10 18:39,2.8,15,2.8,15,4.2,15
2012/1/10 18:40,2.8,15,2.8,15,4.3,15
2012/1/10 18:41,2.8,15,2.8,15,4.7,16
2012/1/10 18:42,2.8,15,2.8,15,4.5,16
2012/1/10 18:43,2.8,15,2.9,15,4.2,15
2012/1/10 18:44,2.9,15,2.9,15,5,15
2012/1/10 18:45,2.9,15,2.9,15,4.7,15
2012/1/10 18:46,2.8,15,2.9,15,4.3,15
2012/1/10 18:47,2.9,15,2.9,15,3.7,15
2012/1/10 18:48,2.9,15,2.9,15,3.3,16
2012/1/10 18:49,2.9,15,3,15,3.2,14
2012/1/10 18:50,2.7,15,2.9,15,2.6,16
2012/1/10 18:51,2.6,15,2.7,15,2.6,15
2012/1/10 18:52,2.3,15,2.6,15,1.6,14
2012/1/10 18:53,2.2,15,2.3,15,3.1,14
2012/1/10 18:54,2.1,15,2.2,15,3.1,13
2012/1/10 18:55,2,14,2.1,15,4.9,13
2012/1/10 18:56,2.1,14,2.1,15,5.8,12
2012/1/10 18:57,2.1,14,2.1,15,3.9,12
2012/1/10 18:58,2.1,14,2.1,15,3.5,13
2012/1/10 18:59,2,13,2.1,15,3,13
2012/1/10 19:00,2.1,13,2.1,15,3,13
2012/1/10 19:01,2,13,2.1,15,2.1,13
2012/1/10 19:02,2.1,13,2.1,15,2.4,13
2012/1/10 19:03,2.1,13,2.1,15,3.1,13
2012/1/10 19:04,2.1,13,2.1,15,2.4,14
2012/1/10 19:05,2,13,2.1,14,1.8,12
2012/1/10 19:06,1.8,14,2,14,3,14
2012/1/10 19:07,1.6,14,1.8,14,1.6,13
2012/1/10 19:08,1.5,14,1.6,14,1.6,14
2012/1/10 19:09,1.5,14,1.5,13,2,16
2012/1/10 19:10,1.4,14,1.5,13,1.6,16
2012/1/10 19:11,1.4,15,1.4,13,1.9,16
2012/1/10 19:12,1.4,15,1.4,13,1.6,14
2012/1/10 19:13,1.2,15,1.4,13,0.9,14
2012/1/10 19:14,1.1,15,1.2,13,0.8,15
2012/1/10 19:15,1,15,1.1,13,1.3,16
2012/1/10 19:16,1,15,1,14,1.9,16
2012/1/10 19:17,1,15,1,14,2.2,16
2012/1/10 19:18,1.1,15,1.1,14,2.6,16
2012/1/10 19:19,1.1,15,1.1,14,2,15
2012/1/10 19:20,1.2,15,1.2,14,2.1,16
2012/1/10 19:21,1.2,15,1.2,15,1.9,15
2012/1/10 19:22,1.2,15,1.2,15,1.9,15
2012/1/10 19:23,1.3,15,1.3,15,2.5,15
2012/1/10 19:24,1.4,15,1.4,15,2.7,15
2012/1/10 19:25,1.6,15,1.6,15,2.6,15
2012/1/10 19:26,1.6,15,1.6,15,2,15
2012/1/10 19:27,1.5,15,1.6,15,1.8,14
2012/1/10 19:28,1.5,15,1.5,15,1.6,16
2012/1/10 19:29,1.3,15,1.4,15,1,15
2012/1/10 19:30,1.3,15,1.3,15,1.1,14
2012/1/10 19:31,1.2,15,1.2,15,1,15
2012/1/10 19:32,1.1,15,1.2,15,0.8,14
2012/1/10 19:33,1,15,1.1,15,1,8
2012/1/10 19:34,0.8,14,1,15,1,8
2012/1/10 19:35,0.7,14,0.8,15,0.9,8
2012/1/10 19:36,0.6,13,0.7,15,0.9,7
2012/1/10 19:37,0.5,12,0.6,15,0.4,7
2012/1/10 19:38,0.4,12,0.5,15,0.8,15
2012/1/10 19:39,0.4,12,0.4,15,0.9,15
2012/1/10 19:40,0.4,16,0.4,15,1,16
2012/1/10 19:41,0.4,1,0.4,15,0.8,15
2012/1/10 19:42,0.4,1,0.4,15,0.9,15
2012/1/10 19:43,0.4,16,0.5,15,0.4,14
2012/1/10 19:44,0.4,15,0.4,14,0,14
2012/1/10 19:45,0.4,15,0.4,14,0.5,9
2012/1/10 19:46,0.3,15,0.4,13,0.5,8
2012/1/10 19:47,0.3,14,0.3,11,0.1,11
2012/1/10 19:48,0.3,14,0.3,1,0.1,8
2012/1/10 19:49,0.3,14,0.3,1,0.4,13
2012/1/10 19:50,0.2,14,0.3,1,0.9,15
2012/1/10 19:51,0.2,14,0.2,1,0.6,15
2012/1/10 19:52,0.2,13,0.2,1,0.5,14
2012/1/10 19:53,0.2,13,0.2,16,0.5,12
2012/1/10 19:54,0.2,13,0.2,15,0.9,12
2012/1/10 19:55,0.3,13,0.3,15,0.9,16
2012/1/10 19:56,0.2,14,0.3,15,0.3,15
2012/1/10 19:57,0.3,14,0.3,14,0.4,12
2012/1/10 19:58,0.3,14,0.3,14,0.5,12
2012/1/10 19:59,0.3,14,0.3,14,0.1,14
2012/1/10 20:00,0.3,14,0.3,13,0.4,3
2012/1/10 20:01,0.2,14,0.3,13,0.3,1
2012/1/10 20:02,0.2,14,0.2,13,0.6,1
2012/1/10 20:03,0.3,15,0.3,13,1.5,1
2012/1/10 20:04,0.3,15,0.3,13,1.4,16
2012/1/10 20:05,0.4,16,0.4,16,1,16
2012/1/10 20:06,0.4,16,0.4,16,0.6,15
2012/1/10 20:07,0.4,16,0.4,16,0.5,15
2012/1/10 20:08,0.4,16,0.4,16,0.4,15
2012/1/10 20:09,0.5,16,0.5,16,1,15
2012/1/10 20:10,0.5,16,0.5,16,1.4,16
2012/1/10 20:11,0.6,16,0.6,16,1.4,16
2012/1/10 20:12,0.7,15,0.7,15,1.5,15
2012/1/10 20:13,0.8,15,0.8,15,1.6,16
2012/1/10 20:14,0.8,15,0.8,15,1.4,16
2012/1/10 20:15,0.8,15,0.8,15,1.4,16
2012/1/10 20:16,0.9,15,0.9,15,1.8,15
2012/1/10 20:17,1,15,1,15,2,15
2012/1/10 20:18,1.1,16,1.1,15,2,16
2012/1/10 20:19,1.3,16,1.3,16,2.1,16
2012/1/10 20:20,1.3,16,1.3,16,2.1,16
2012/1/10 20:21,1.4,16,1.4,16,2.4,16
2012/1/10 20:22,1.4,16,1.4,16,2,16
2012/1/10 20:23,1.4,16,1.4,16,2.2,15
2012/1/10 20:24,1.5,16,1.5,16,2.6,16
2012/1/10 20:25,1.6,16,1.6,16,2.5,16
2012/1/10 20:26,1.6,16,1.6,16,2,16
2012/1/10 20:27,1.6,16,1.6,16,2,16
2012/1/10 20:28,1.5,16,1.6,16,1,16
2012/1/10 20:29,1.3,16,1.5,16,0.1,11
2012/1/10 20:30,1.2,16,1.3,16,1,8
2012/1/10 20:31,1.1,16,1.2,16,1,9
2012/1/10 20:32,1,15,1.1,16,0.5,8
2012/1/10 20:33,0.8,14,0.9,16,0,9
2012/1/10 20:34,0.6,13,0.8,16,0,9
2012/1/10 20:35,0.4,12,0.6,16,0.6,16
2012/1/10 20:36,0.4,13,0.4,16,0.8,15
2012/1/10 20:37,0.3,12,0.4,16,1.1,15
2012/1/10 20:38,0.3,13,0.3,16,1,15
2012/1/10 20:39,0.4,13,0.4,16,0.6,15
2012/1/10 20:40,0.3,14,0.4,16,0.1,4
2012/1/10 20:41,0.3,15,0.3,16,0.3,3
2012/1/10 20:42,0.3,16,0.3,15,0.4,4
2012/1/10 20:43,0.3,1,0.3,14,0.5,4
2012/1/10 20:44,0.4,1,0.4,13,0.4,4
2012/1/10 20:45,0.3,2,0.4,12,0.1,1
2012/1/10 20:46,0.3,2,0.3,13,1,8
2012/1/10 20:47,0.3,3,0.3,13,0.8,8
2012/1/10 20:48,0.2,4,0.3,13,0.6,5
2012/1/10 20:49,0.2,4,0.2,13,0.6,5
2012/1/10 20:50,0.2,4,0.2,1,0.4,5
2012/1/10 20:51,0.3,4,0.3,1,0.4,4
2012/1/10 20:52,0.3,4,0.3,1,0.5,3
2012/1/10 20:53,0.2,4,0.3,1,0.3,3
2012/1/10 20:54,0.2,4,0.2,1,0.3,3
2012/1/10 20:55,0.2,4,0.2,2,0.1,3
2012/1/10 20:56,0.2,3,0.2,3,0.6,15
2012/1/10 20:57,0.2,3,0.2,3,0.1,16
2012/1/10 20:58,0.2,2,0.2,4,0,15
2012/1/10 20:59,0.2,2,0.2,4,0.3,14
2012/1/10 21:00,0.2,1,0.2,4,0.6,14
2012/1/10 21:01,0.1,16,0.2,4,0.4,13
2012/1/10 21:02,0.1,15,0.1,4,0,13
2012/1/10 21:03,0.1,15,0.1,4,0,13
2012/1/10 21:04,0.1,15,0.1,4,0.3,2
2012/1/10 21:05,0.1,15,0.1,4,0.1,2
2012/1/10 21:06,0.1,15,0.1,3,0,2
2012/1/10 21:07,0.1,15,0.1,3,0,2
2012/1/10 21:08,0.1,16,0.1,2,0,2
2012/1/10 21:09,0.1,16,0.1,1,0,2
2012/1/10 21:10,0,1,0.1,1,0.5,1
2012/1/10 21:11,0,1,0,16,0.4,1
2012/1/10 21:12,0,2,0,15,0,1
2012/1/10 21:13,0,2,0,15,0,2
2012/1/10 21:14,0,2,0,15,0,2
2012/1/10 21:15,0,2,0,15,0.3,2
2012/1/10 21:16,0,2,0,15,0.1,2
2012/1/10 21:17,0,2,0,15,0,2
2012/1/10 21:18,0,2,0,16,0.1,3
2012/1/10 21:19,0,2,0,16,0.1,4
2012/1/10 21:20,0,2,0,1,0,2
2012/1/10 21:21,0,2,0,1,0,1
2012/1/10 21:22,0,2,0,2,0.3,11
2012/1/10 21:23,0,1,0,2,0,12
2012/1/10 21:24,0,1,0,2,0,12
2012/1/10 21:25,0,1,0,2,0.1,1
2012/1/10 21:26,0,16,0,2,0.3,1
2012/1/10 21:27,0,16,0,2,0.5,16
2012/1/10 21:28,0.1,16,0.1,16,0.8,2
2012/1/10 21:29,0.1,16,0.1,16,0.9,2
2012/1/10 21:30,0.1,16,0.1,16,0.1,12
2012/1/10 21:31,0.2,16,0.2,15,0.5,4
2012/1/10 21:32,0.3,16,0.3,16,1.3,4
2012/1/10 21:33,0.3,1,0.3,16,1.3,4
2012/1/10 21:34,0.4,1,0.4,1,0.8,14
2012/1/10 21:35,0.4,1,0.4,1,0.5,11
2012/1/10 21:36,0.4,2,0.4,1,0.3,6
2012/1/10 21:37,0.4,3,0.4,1,0.9,5
2012/1/10 21:38,0.5,4,0.5,4,1.1,6
2012/1/10 21:39,0.4,5,0.5,4,0.9,6
2012/1/10 21:40,0.5,6,0.5,4,0.5,12
2012/1/10 21:41,0.4,6,0.5,4,0.1,16
2012/1/10 21:42,0.3,6,0.4,4,0.1,4
2012/1/10 21:43,0.3,6,0.3,4,0.3,3
2012/1/10 21:44,0.3,4,0.3,4,0.8,1
2012/1/10 21:45,0.3,3,0.3,4,0.6,1
2012/1/10 21:46,0.3,2,0.3,4,1,16
2012/1/10 21:47,0.4,1,0.4,4,1.3,16
2012/1/10 21:48,0.4,16,0.4,4,1.5,15
2012/1/10 21:49,0.4,16,0.4,6,1.3,16
2012/1/10 21:50,0.4,16,0.4,6,0.6,16
2012/1/10 21:51,0.4,16,0.4,6,0.3,15
2012/1/10 21:52,0.4,16,0.4,1,0.1,16
